• In Deutschland
  • Länderverzeichnis
  • Für 7 Tage
  • Wassertemperatur
  • Satellitenkarten
  • Wetterkarte
  • Widgets
  • user-avatar
    Anmelden

    Stündliche Wetter Bauru

    Heute, 25 November, Samstag

    Zeit Temperatur Niederschläge Wind Luftdruck Luftfeuchtigkeit
    00:00 +24°C° 0 mm 2 m/S 716 mmHg 70%
    01:00 +24°C° 0 mm 2 m/S 716 mmHg 73%
    02:00 +24°C° 0 mm 2 m/S 716 mmHg 75%
    03:00 +23°C° 0 mm 2 m/S 716 mmHg 78%
    04:00 +23°C° 0 mm 2 m/S 716 mmHg 81%
    05:00 +23°C° 0 mm 2 m/S 716 mmHg 84%
    06:00 +23°C° 0 mm 2 m/S 716 mmHg 87%
    07:00 +25°C° 0 mm 3 m/S 717 mmHg 80%
    08:00 +27°C° 0 mm 3 m/S 717 mmHg 74%
    09:00 +29°C° 0 mm 3 m/S 717 mmHg 67%
    10:00 +30°C° 0 mm 3 m/S 717 mmHg 60%
    11:00 +33°C° 0 mm 3 m/S 717 mmHg 53%
    12:00 +34°C° 0 mm 3 m/S 717 mmHg 47%
    13:00 +34°C° 0 mm 2 m/S 716 mmHg 45%
    14:00 +35°C° 0 mm 2 m/S 716 mmHg 42%
    15:00 +34°C° 0 mm 1 m/S 715 mmHg 40%
    16:00 +33°C° 0 mm 1 m/S 715 mmHg 45%
    17:00 +32°C° 0 mm 1 m/S 714 mmHg 51%
    18:00 +29°C° 0 mm 0 m/S 714 mmHg 56%
    19:00 +30°C° 0 mm 1 m/S 714 mmHg 57%
    20:00 +29°C° 0 mm 1 m/S 714 mmHg 58%
    21:00 +28°C° 0 mm 1 m/S 714 mmHg 59%
    22:00 +27°C° 0,1 mm 1 m/S 714 mmHg 63%
    23:00 +27°C° 0,1 mm 1 m/S 715 mmHg 67%

    Morgen, 26 November, Sonntag

    Zeit Temperatur Niederschläge Wind Luftdruck Luftfeuchtigkeit
    00:00 +26°C° 0,1 mm 2 m/S 715 mmHg 70%
    01:00 +26°C° 0,5 mm 1 m/S 714 mmHg 75%
    02:00 +25°C° 0,5 mm 1 m/S 714 mmHg 80%
    03:00 +24°C° 0,5 mm 1 m/S 714 mmHg 85%
    04:00 +24°C° 0,8 mm 1 m/S 714 mmHg 87%
    05:00 +24°C° 0,8 mm 1 m/S 714 mmHg 89%
    06:00 +24°C° 0,8 mm 1 m/S 714 mmHg 91%
    07:00 +25°C° 0,6 mm 2 m/S 714 mmHg 87%
    08:00 +26°C° 0,6 mm 3 m/S 715 mmHg 84%
    09:00 +27°C° 0,6 mm 3 m/S 715 mmHg 80%
    10:00 +27°C° 0,8 mm 4 m/S 715 mmHg 77%
    11:00 +28°C° 0,8 mm 4 m/S 715 mmHg 74%
    12:00 +29°C° 0,8 mm 5 m/S 715 mmHg 70%
    13:00 +29°C° 0,4 mm 4 m/S 714 mmHg 69%
    14:00 +29°C° 0,4 mm 4 m/S 714 mmHg 67%
    15:00 +30°C° 0,4 mm 4 m/S 713 mmHg 66%
    16:00 +29°C° 0,2 mm 3 m/S 713 mmHg 70%
    17:00 +28°C° 0,2 mm 3 m/S 713 mmHg 73%
    18:00 +28°C° 0,2 mm 2 m/S 712 mmHg 77%
    19:00 +27°C° 0,6 mm 2 m/S 713 mmHg 81%
    20:00 +26°C° 0,6 mm 2 m/S 713 mmHg 84%
    21:00 +25°C° 0,6 mm 2 m/S 714 mmHg 87%
    22:00 +25°C° 1,2 mm 2 m/S 714 mmHg 88%
    23:00 +25°C° 1,2 mm 2 m/S 714 mmHg 90%

    übermorgen, 27 November, Montag

    Zeit Temperatur Niederschläge Wind Luftdruck Luftfeuchtigkeit
    00:00 +24°C° 1,2 mm 2 m/S 714 mmHg 91%
    01:00 +24°C° 1,7 mm 2 m/S 713 mmHg 92%
    02:00 +24°C° 1,7 mm 2 m/S 713 mmHg 93%
    03:00 +23°C° 1,7 mm 2 m/S 713 mmHg 94%
    04:00 +23°C° 1,2 mm 2 m/S 713 mmHg 94%
    05:00 +23°C° 1,2 mm 2 m/S 713 mmHg 94%
    06:00 +23°C° 1,2 mm 2 m/S 714 mmHg 94%
    07:00 +25°C° 1,3 mm 3 m/S 714 mmHg 88%
    08:00 +26°C° 1,3 mm 4 m/S 714 mmHg 82%
    09:00 +28°C° 1,3 mm 4 m/S 715 mmHg 76%
    10:00 +28°C° 2,7 mm 4 m/S 715 mmHg 74%
    11:00 +29°C° 2,7 mm 4 m/S 715 mmHg 73%
    12:00 +29°C° 2,7 mm 4 m/S 715 mmHg 71%
    13:00 +29°C° 1,8 mm 4 m/S 714 mmHg 72%
    14:00 +29°C° 1,8 mm 4 m/S 714 mmHg 73%
    15:00 +29°C° 1,8 mm 4 m/S 713 mmHg 73%
    16:00 +29°C° 0,7 mm 3 m/S 713 mmHg 76%
    17:00 +28°C° 0,7 mm 3 m/S 713 mmHg 79%
    18:00 +28°C° 0,7 mm 2 m/S 713 mmHg 82%
    19:00 +27°C° 1,3 mm 2 m/S 714 mmHg 85%
    20:00 +26°C° 1,3 mm 2 m/S 714 mmHg 87%
    21:00 +25°C° 1,3 mm 2 m/S 715 mmHg 89%
    22:00 +25°C° 2 mm 1 m/S 715 mmHg 90%
    23:00 +24°C° 2 mm 1 m/S 715 mmHg 90%

    28 November, Dienstag

    Zeit Temperatur Niederschläge Wind Luftdruck Luftfeuchtigkeit
    00:00 +24°C° 2 mm 1 m/S 715 mmHg 91%
    01:00 +24°C° 0,4 mm 1 m/S 715 mmHg 91%
    02:00 +24°C° 0,4 mm 1 m/S 714 mmHg 91%
    03:00 +24°C° 0,4 mm 1 m/S 714 mmHg 91%
    04:00 +23°C° 0,2 mm 2 m/S 714 mmHg 92%
    05:00 +23°C° 0,2 mm 2 m/S 715 mmHg 93%
    06:00 +22°C° 0,2 mm 3 m/S 715 mmHg 94%
    07:00 +24°C° 0,1 mm 3 m/S 716 mmHg 89%
    08:00 +25°C° 0,1 mm 3 m/S 716 mmHg 84%
    09:00 +27°C° 0,1 mm 4 m/S 716 mmHg 79%
    10:00 +28°C° 0,3 mm 3 m/S 716 mmHg 74%
    11:00 +29°C° 0,3 mm 3 m/S 716 mmHg 69%
    12:00 +30°C° 0,3 mm 2 m/S 716 mmHg 64%
    13:00 +30°C° 0,7 mm 2 m/S 715 mmHg 65%
    14:00 +30°C° 0,7 mm 2 m/S 715 mmHg 65%
    15:00 +30°C° 0,7 mm 2 m/S 714 mmHg 66%
    16:00 +29°C° 0,7 mm 3 m/S 714 mmHg 71%
    17:00 +27°C° 0,7 mm 3 m/S 714 mmHg 77%
    18:00 +26°C° 0,7 mm 4 m/S 714 mmHg 82%
    19:00 +25°C° 0 mm 4 m/S 715 mmHg 83%
    20:00 +23°C° 0 mm 4 m/S 715 mmHg 83%
    21:00 +21°C° 0 mm 5 m/S 716 mmHg 84%
    22:00 +21°C° 0 mm 5 m/S 716 mmHg 83%
    23:00 +20°C° 0 mm 5 m/S 716 mmHg 82%

    29 November, Mittwoch

    Zeit Temperatur Niederschläge Wind Luftdruck Luftfeuchtigkeit
    00:00 +19°C° 0 mm 5 m/S 716 mmHg 82%
    01:00 +19°C° 0 mm 5 m/S 715 mmHg 81%
    02:00 +19°C° 0 mm 4 m/S 715 mmHg 80%
    03:00 +18°C° 0 mm 4 m/S 714 mmHg 79%
    04:00 +18°C° 0 mm 4 m/S 714 mmHg 79%
    05:00 +18°C° 0 mm 4 m/S 714 mmHg 79%
    06:00 +18°C° 0 mm 4 m/S 715 mmHg 79%
    07:00 +20°C° 0 mm 4 m/S 715 mmHg 75%
    08:00 +21°C° 0 mm 5 m/S 715 mmHg 70%
    09:00 +23°C° 0 mm 5 m/S 716 mmHg 66%
    10:00 +26°C° 0 mm 4 m/S 715 mmHg 62%
    11:00 +27°C° 0 mm 4 m/S 715 mmHg 58%
    12:00 +29°C° 0 mm 4 m/S 715 mmHg 54%
    13:00 +29°C° 0 mm 3 m/S 714 mmHg 54%
    14:00 +30°C° 0 mm 3 m/S 713 mmHg 53%
    15:00 +30°C° 0 mm 3 m/S 712 mmHg 53%
    16:00 +29°C° 0 mm 3 m/S 712 mmHg 58%
    17:00 +28°C° 0 mm 4 m/S 712 mmHg 63%
    18:00 +27°C° 0 mm 4 m/S 712 mmHg 68%
    19:00 +25°C° 0 mm 4 m/S 713 mmHg 70%
    20:00 +23°C° 0 mm 5 m/S 713 mmHg 72%
    21:00 +21°C° 0 mm 5 m/S 714 mmHg 73%
    22:00 +20°C° 0 mm 5 m/S 714 mmHg 73%
    23:00 +20°C° 0 mm 5 m/S 714 mmHg 73%

    30 November, Donnerstag

    Zeit Temperatur Niederschläge Wind Luftdruck Luftfeuchtigkeit
    00:00 +19°C° 0 mm 5 m/S 714 mmHg 73%
    01:00 +19°C° 0 mm 4 m/S 713 mmHg 74%
    02:00 +18°C° 0 mm 4 m/S 713 mmHg 75%
    03:00 +18°C° 0 mm 4 m/S 712 mmHg 76%
    04:00 +18°C° 0 mm 4 m/S 713 mmHg 76%
    05:00 +18°C° 0 mm 4 m/S 713 mmHg 77%
    06:00 +18°C° 0 mm 3 m/S 713 mmHg 78%
    07:00 +19°C° 0 mm 4 m/S 713 mmHg 75%
    08:00 +21°C° 0 mm 4 m/S 714 mmHg 71%
    09:00 +22°C° 0 mm 4 m/S 714 mmHg 68%
    10:00 +25°C° 0 mm 3 m/S 714 mmHg 65%
    11:00 +27°C° 0 mm 3 m/S 713 mmHg 61%
    12:00 +29°C° 0 mm 3 m/S 713 mmHg 57%
    13:00 +29°C° 0 mm 3 m/S 713 mmHg 55%
    14:00 +30°C° 0 mm 3 m/S 712 mmHg 53%
    15:00 +31°C° 0 mm 2 m/S 711 mmHg 51%
    16:00 +30°C° 0 mm 2 m/S 712 mmHg 56%
    17:00 +29°C° 0 mm 2 m/S 712 mmHg 61%
    18:00 +28°C° 0 mm 2 m/S 712 mmHg 66%
    19:00 +26°C° 0 mm 3 m/S 712 mmHg 67%
    20:00 +25°C° 0 mm 4 m/S 713 mmHg 68%
    21:00 +23°C° 0 mm 5 m/S 713 mmHg 69%
    22:00 +22°C° 0 mm 5 m/S 713 mmHg 70%
    23:00 +22°C° 0 mm 5 m/S 713 mmHg 71%
    Mehr zeigen